Regional Weather Roundup
Issued by NWS Memphis, TN

Home | Current Version | Previous Version | Text Only | Print | Product List | Glossary On
Versions: 1 2 3 4 5 6 7 8 9 10 11 12 13 14 15 16 17 18 19 20 21 22 23 24 25 26 27 28 29 30 31 32 33 34 35 36 37 38 39 40 41 42 43 44 45 46 47 48 49 50
000
ASUS44 KMEG 231700
RWRMEG
MEMPHIS CWA HOURLY WEATHER ROUNDUP
NATIONAL WEATHER SERVICE MEMPHIS TN
1100 AM CST THU NOV 23 2017

...WEST TENNESSEE...

CITY           SKY/WX    TMP DP  RH WIND       PRES   REMARKS
MEMPHIS INTL   SUNNY     48  24  39 CALM      30.17F
NWS MEMPHIS      N/A     47 N/A N/A MISG        N/A
JACKSON        SUNNY     46  26  45 CALM      30.16F
DYERSBURG      SUNNY     45  26  47 E3        30.16F


...EASTERN ARKANSAS...

CITY           SKY/WX    TMP DP  RH WIND       PRES   REMARKS
JONESBORO      SUNNY     45  28  51 S8        30.16F
WEST MEMPHIS   SUNNY     46  25  43 VRB3      30.17F
BATESVILLE     SUNNY     50  28  42 VRB3      30.16F
NEWPORT        SUNNY     45  27  49 S9        30.17F
WALNUT RIDGE     N/A     44  27  51 SW7       30.16F
BLYTHEVILLE    SUNNY     45  30  55 VRB5      30.16F
SEARCY         SUNNY     49  27  42 S6        30.18F
STUTTGART      SUNNY     46  27  47 S3        30.19F
PINE BLUFF     SUNNY     47  26  44 CALM      30.20F
MONTICELLO     SUNNY     50  24  36 NE5       30.20F


...NORTH MISSISSIPPI...

CITY           SKY/WX    TMP DP  RH WIND       PRES   REMARKS
TUPELO         SUNNY     47  25  42 N7        30.15F
OLIVE BRANCH   SUNNY    N/A N/A N/A CALM      30.14S
TUNICA           N/A    N/A N/A N/A NE3       30.20F
CLARKSDALE       N/A     46  27  46 CALM      30.20F
GREENWOOD      SUNNY     49  28  44 N5        30.17F
COLUMBUS       SUNNY     49  30  48 N7        30.12F
STARKVILLE     SUNNY     48  30  49 NW6       30.15F
GOLDEN TRIANGL SUNNY     50  28  42 N8        30.13F


...SOUTHEAST MISSOURI...

CITY           SKY/WX    TMP DP  RH WIND       PRES   REMARKS
KENNETT        SUNNY     45  28  53 VRB6      30.15F
MALDEN         SUNNY     45  28  53 S6        30.17F
WEST PLAINS    SUNNY     51  18  27 SW7       30.10F
POPLAR BLUFF   SUNNY     43  26  51 SW7       30.14F
CAPE GIRARDEAU SUNNY     43  25  49 SW5       30.13F


...NORTHWEST ALABAMA...

CITY           SKY/WX    TMP DP  RH WIND       PRES   REMARKS
MUSCLE SHOALS  SUNNY     51  25  36 N7        30.14F


...MIDDLE TENNESSEE...

CITY           SKY/WX    TMP DP  RH WIND       PRES   REMARKS
NASHVILLE      SUNNY     46  26  45 CALM      30.14F
CLARKSVILLE    SUNNY     44  26  49 VRB5      30.13F


...WESTERN KENTUCKY...

CITY           SKY/WX    TMP DP  RH WIND       PRES   REMARKS
PADUCAH        SUNNY     45  22  40 VRB3      30.14F
FORT CAMPBELL  SUNNY     44  24  46 S3        30.12F


...CENTRAL ARKANSAS...

CITY           SKY/WX    TMP DP  RH WIND       PRES   REMARKS
LITTLE ROCK    MOSUNNY   49  24  37 VRB5      30.19F


SKY/WX REPORTED AS FAIR MEANS FEW OR NO CLOUDS BELOW
12 THOUSAND FEET.




USA.gov is the U.S. government's official web portal to all federal, state and local government web resources and services.